Weather Roundup
Issued by NWS Chicago, IL

Home | Current Version | Previous Version | Text Only | Print | Product List | Glossary Off
Versions: 1 2 3 4 5 6 7 8 9 10 11 12 13 14 15 16 17 18 19 20 21 22 23 24 25 26 27 28 29 30 31 32 33 34 35 36 37 38 39 40 41 42 43 44 45 46 47 48 49 50

000
NZUS59 KLOT 201306
HRRLOT

CHICAGO AREA WEATHER ROUNDUP
NATIONAL WEATHER SERVICE CHICAGO/ROMEOVILLE IL
800 AM CDT SAT SEP 20 2014

NOTE: "FAIR" INDICATES FEW OR NO CLOUDS BELOW 12,000 FEET WITH NO
SIGNIFICANT WEATHER AND/OR OBSTRUCTIONS TO VISIBILITY.

* THESE STATIONS ARE NOT UNDER NWS QUALITY CONTROL. THEY ALSO MAY NOT
  REPORT WEATHER SUCH AS PRECIPITATION OR FOG.

ILZ005-006-012>014-019>023-201400-
NORTHEAST ILLINOIS

CITY           SKY/WX    TMP DP  RH WIND       PRES   REMARKS
OHARE          CLOUDY    65  55  70 SW13G18   29.89F
MIDWAY         CLOUDY    64  56  75 SW16      29.92F
AURORA         PTSUNNY   60  55  83 S7        29.92F HAZE
LANSING*       PTSUNNY   60  55  81 SW10      29.95F
JOLIET*        PTSUNNY   62  56  78 S9        29.94F
WAUKEGAN       CLOUDY    63  56  78 SW15G24   29.84F
DUPAGE AIRPORT PTSUNNY   60  55  83 S10       29.91F
WHEELING       CLOUDY    65  55  70 S12       29.90F
KANKAKEE*      PTSUNNY   61  56  85 S8        29.97F
MORRIS*        PTSUNNY   62  58  90 S6        29.93F
LEWIS AIRPORT* PTSUNNY   63  56  79 SW12      29.92F
NORTHERLY IS     N/A     64  54  69 S9          N/A
$$

WIZ051-052-058>065-066-070>072-201400-
SOUTHEAST WISCONSIN

CITY           SKY/WX    TMP DP  RH WIND       PRES   REMARKS
MILWAUKEE      CLOUDY    65  58  78 SW20G30   29.78F
KENOSHA*       CLOUDY    64  58  80 SW16      29.82F
RACINE*        CLOUDY    65  57  75 SW18      29.81F
BURLINGTON     CLOUDY    60  57  89 S12G21    29.80F
WAUKESHA       SUNNY     63  59  88 SW9G16    29.82S
WEST BEND      CLOUDY    63  57  82 SW8G16    29.80R
$$

INZ001>003-010>013-019-020-201400-
NORTHWEST INDIANA

CITY           SKY/WX    TMP DP  RH WIND       PRES   REMARKS
GARY*          PTSUNNY   64  55  72 S10       29.95F
MICHIGAN CITY* NOT AVBL
RENSSELAER*    NOT AVBL
VALPARAISO     PTSUNNY   60  54  80 SW12G18   29.97F
$$

LMZ740>746-201400-
SOUTHERN LAKE MICHIGAN

STATION/POSITION TIME  SKY/WX   TEMP WIND        PRES    VSBY
                                AIR  DIR/SP/G
                 (UTC)          (F)  (DEG/KT/KT) (MB)    (MI)
HARRISON CRIB    1300            64  200/ 24/ 30   N/A
BURNHAM HARBOR   1300            65  240/  8/ 11   N/A
CALUMET HARBOR   1300            64  200/ 10/ 14 1012.2F
BURNS HARBOR     NOT AVBL
MICHIGAN CITY    1300            64  180/ 20/ 25   N/A
$$

ABBREVIATIONS USED IN REMARKS
   TC - TEMPERATURE IN CELSIUS
  WCI - WIND CHILL INDEX
   HX - HEAT INDEX
  VSB - VISIBILITY
$$



USA.gov is the U.S. government's official web portal to all federal, state and local government web resources and services.